Location: San Gennaro Vesuviano
(40.8833°N, 14.5333°E)
Time: 22:59:51
(UTC+00:00)

Cosmos 2237 Rocket - Pass Details

Date: 22 April 2021
Orbit: 836 x 849 km, 71.0° (Epoch: 10 May)

Event Time Altitude Azimuth Distance (km) Brightness Sun altitude
Rises 20:21:03 0° 326° (NW) 3,397 6.7 -25.2°
Reaches altitude 10° 20:23:44 10° 317° (NW) 2,457 5.7 -25.5°
Maximum altitude 20:28:37 31° 256° (WSW) 1,426 3.6 -26.2°
Enters shadow 20:30:43 24° 219° (SW) 1,665 3.6 -26.4°
